QPF
0.00 0.00 0.00 0.00 0.00 0.00 0.01 0.01 0.00 0.01 0.01 0.01 0.01 0.01 0.01 0.00 0.00 0.00 0.00 0.00 0.00 0.00 0.00 0.01 0.03 0.03 0.02 0.02 0.02 0.03 0.03 0.02 0.02 0.01 0.02 0.03 0.04 0.06 0.07 0.07 0.06 0.05 0.05 0.04 0.09 0.10 0.07 0.09 0.07
0.00 0.00 0.00 0.00 0.00 0.00 0.00 0.00 0.00 0.01 0.01 0.01 0.01 0.01 0.01 0.00 0.00 0.00 0.00 0.00 0.00 0.00 0.00 0.01 0.03 0.03 0.01 0.02 0.02 0.03 0.04 0.03 0.03 0.01 0.01 0.02 0.04 0.07 0.08 0.07 0.06 0.06 0.06 0.06 0.09 0.12 0.08 0.12 0.11
0.00 0.00 0.00 0.00 0.00 0.00 0.00 0.00 0.00 0.00 0.01 0.01 0.01 0.01 0.01 0.01 0.00 0.00 0.00 0.00 0.00 0.00 0.01 0.01 0.03 0.03 0.01 0.02 0.03 0.03 0.03 0.04 0.04 0.02 0.01 0.02 0.04 0.06 0.07 0.06 0.04 0.05 0.08 0.09 0.08 0.11 0.12 0.15 0.12
0.00 0.00 0.00 0.00 0.00 0.00 0.00 0.00 0.00 0.00 0.00 0.01 0.01 0.01 0.00 0.00 0.00 0.00 0.00 0.00 0.00 0.00 0.01 0.02 0.02 0.02 0.02 0.02 0.03 0.02 0.03 0.03 0.04 0.03 0.02 0.02 0.03 0.06 0.07 0.05 0.04 0.04 0.05 0.08 0.08 0.08 0.12 0.19 0.13
0.00 0.00 0.00 0.00 0.00 0.00 0.00 0.00 0.00 0.00 0.00 0.01 0.00 0.00 0.00 0.00 0.00 0.00 0.00 0.01 0.01 0.01 0.01 0.01 0.01 0.02 0.02 0.03 0.03 0.04 0.04 0.04 0.04 0.04 0.02 0.02 0.02 0.04 0.05 0.05 0.05 0.04 0.04 0.05 0.07 0.08 0.09 0.19 0.12
0.00 0.00 0.00 0.00 0.00 0.00 0.00 0.00 0.00 0.00 0.00 0.00 0.00 0.00 0.00 0.00 0.01 0.01 0.01 0.01 0.00 0.00 0.01 0.01 0.01 0.02 0.03 0.05 0.05 0.05 0.05 0.04 0.05 0.05 0.04 0.02 0.02 0.02 0.03 0.04 0.05 0.04 0.04 0.04 0.05 0.06 0.07 0.15 0.11
0.00 0.00 0.00 0.00 0.00 0.00 0.00 0.00 0.00 0.00 0.01 0.00 0.00 0.01 0.00 0.01 0.02 0.02 0.02 0.02 0.02 0.02 0.02 0.01 0.01 0.01 0.03 0.04 0.04 0.05 0.05 0.05 0.05 0.05 0.05 0.04 0.05 0.05 0.02 0.03 0.03 0.03 0.03 0.04 0.05 0.05 0.06 0.10 0.10
0.00 0.00 0.00 0.00 0.00 0.00 0.00 0.00 0.00 0.01 0.02 0.02 0.01 0.01 0.01 0.01 0.01 0.03 0.03 0.03 0.04 0.07 0.07 0.02 0.01 0.00 0.01 0.02 0.04 0.04 0.04 0.04 0.04 0.05 0.06 0.07 0.06 0.07 0.05 0.05 0.04 0.03 0.03 0.04 0.04 0.04 0.05 0.07 0.08
0.00 0.01 0.00 0.00 0.00 0.00 0.00 0.00 0.00 0.01 0.02 0.02 0.01 0.00 0.01 0.01 0.01 0.02 0.03 0.05 0.09 0.11 0.07 0.03 0.01 0.00 0.00 0.01 0.02 0.03 0.04 0.04 0.04 0.05 0.06 0.06 0.07 0.08 0.07 0.07 0.07 0.06 0.07 0.07 0.06 0.06 0.05 0.07 0.07
0.00 0.01 0.00 0.00 0.00 0.00 0.00 0.00 0.00 0.00 0.01 0.01 0.01 0.01 0.01 0.01 0.01 0.02 0.04 0.11 0.11 0.08 0.03 0.02 0.02 0.01 0.00 0.00 0.01 0.01 0.02 0.03 0.03 0.02 0.03 0.04 0.06 0.06 0.07 0.08 0.08 0.09 0.10 0.10 0.09 0.08 0.08 0.08 0.05
0.00 0.00 0.00 0.00 0.00 0.00 0.00 0.00 0.00 0.00 0.01 0.01 0.01 0.01 0.01 0.02 0.02 0.02 0.03 0.02 0.02 0.02 0.01 0.01 0.01 0.01 0.00 0.00 0.01 0.02 0.02 0.02 0.02 0.01 0.01 0.02 0.03 0.04 0.05 0.06 0.07 0.08 0.09 0.08 0.09 0.09 0.07 0.06 0.05
0.00 0.00 0.00 0.00 0.01 0.01 0.00 0.00 0.00 0.01 0.01 0.01 0.01 0.02 0.02 0.02 0.02 0.02 0.01 0.01 0.01 0.01 0.01 0.02 0.01 0.01 0.01 0.01 0.01 0.01 0.01 0.02 0.02 0.01 0.01 0.01 0.02 0.02 0.03 0.05 0.06 0.05 0.05 0.06 0.07 0.05 0.05 0.05 0.06
0.00 0.01 0.01 0.01 0.01 0.01 0.00 0.00 0.01 0.01 0.02 0.02 0.01 0.02 0.03 0.03 0.03 0.02 0.02 0.02 0.02 0.02 0.02 0.02 0.02 0.01 0.02 0.01 0.01 0.01 0.01 0.01 0.01 0.02 0.03 0.02 0.02 0.02 0.02 0.03 0.05 0.04 0.03 0.05 0.05 0.04 0.03 0.05 0.07
0.01 0.02 0.02 0.02 0.01 0.01 0.01 0.01 0.01 0.01 0.02 0.02 0.02 0.04 0.07 0.07 0.06 0.04 0.03 0.03 0.03 0.03 0.03 0.03 0.03 0.02 0.02 0.02 0.02 0.01 0.01 0.01 0.01 0.01 0.02 0.03 0.03 0.04 0.03 0.03 0.04 0.03 0.03 0.04 0.06 0.04 0.02 0.04 0.07
0.01 0.02 0.03 0.04 0.02 0.01 0.01 0.01 0.01 0.01 0.01 0.02 0.02 0.04 0.07 0.10 0.10 0.08 0.05 0.04 0.04 0.06 0.04 0.04 0.04 0.03 0.03 0.03 0.02 0.02 0.02 0.01 0.01 0.00 0.01 0.01 0.03 0.06 0.07 0.05 0.05 0.04 0.03 0.03 0.06 0.09 0.04 0.04 0.05
0.00 0.01 0.02 0.04 0.04 0.01 0.01 0.01 0.01 0.00 0.01 0.01 0.01 0.03 0.06 0.08 0.10 0.07 0.05 0.04 0.04 0.04 0.03 0.04 0.04 0.04 0.04 0.05 0.04 0.03 0.02 0.01 0.01 0.01 0.00 0.01 0.02 0.05 0.07 0.06 0.06 0.05 0.04 0.03 0.04 0.08 0.08 0.06 0.04
0.00 0.00 0.01 0.02 0.03 0.03 0.02 0.01 0.01 0.00 0.00 0.01 0.01 0.02 0.04 0.07 0.06 0.04 0.03 0.03 0.03 0.03 0.03 0.04 0.04 0.05 0.06 0.06 0.05 0.03 0.02 0.02 0.01 0.01 0.01 0.01 0.01 0.03 0.05 0.05 0.05 0.05 0.05 0.04 0.05 0.08 0.08 0.06 0.05
0.00 0.00 0.01 0.01 0.01 0.02 0.02 0.01 0.00 0.01 0.01 0.01 0.01 0.03 0.04 0.04 0.03 0.03 0.03 0.03 0.04 0.03 0.03 0.04 0.05 0.07 0.08 0.07 0.06 0.05 0.04 0.04 0.03 0.03 0.02 0.03 0.03 0.03 0.04 0.05 0.03 0.04 0.04 0.04 0.03 0.03 0.04 0.04 0.05
0.00 0.00 0.00 0.01 0.00 0.01 0.01 0.01 0.01 0.01 0.01 0.01 0.01 0.02 0.02 0.02 0.02 0.02 0.03 0.03 0.03 0.03 0.03 0.04 0.05 0.06 0.07 0.08 0.07 0.07 0.05 0.05 0.04 0.04 0.03 0.03 0.04 0.05 0.05 0.04 0.02 0.03 0.04 0.05 0.05 0.04 0.04 0.04 0.04
0.00 0.00 0.00 0.00 0.00 0.00 0.01 0.01 0.02 0.01 0.01 0.01 0.01 0.01 0.02 0.02 0.02 0.02 0.03 0.03 0.03 0.03 0.03 0.04 0.05 0.05 0.06 0.06 0.07 0.07 0.06 0.05 0.06 0.05 0.04 0.04 0.04 0.04 0.03 0.02 0.02 0.02 0.03 0.04 0.05 0.05 0.05 0.05 0.05
0.00 0.00 0.00 0.00 0.01 0.01 0.01 0.01 0.02 0.02 0.02 0.02 0.01 0.01 0.01 0.01 0.02 0.02 0.02 0.03 0.03 0.02 0.03 0.03 0.04 0.05 0.06 0.07 0.05 0.04 0.05 0.05 0.04 0.03 0.03 0.04 0.04 0.04 0.03 0.03 0.03 0.03 0.03 0.03 0.06 0.07 0.06 0.06 0.06
0.00 0.00 0.00 0.01 0.02 0.01 0.01 0.02 0.02 0.02 0.02 0.02 0.02 0.02 0.02 0.02 0.01 0.01 0.02 0.03 0.03 0.03 0.03 0.03 0.04 0.05 0.04 0.03 0.02 0.02 0.02 0.02 0.02 0.03 0.04 0.04 0.04 0.04 0.04 0.04 0.04 0.03 0.02 0.03 0.05 0.07 0.06 0.06 0.06
0.00 0.00 0.00 0.00 0.01 0.01 0.02 0.03 0.04 0.02 0.01 0.01 0.02 0.02 0.02 0.02 0.02 0.02 0.03 0.03 0.03 0.04 0.03 0.04 0.04 0.03 0.02 0.02 0.01 0.01 0.01 0.02 0.03 0.06 0.06 0.06 0.06 0.06 0.05 0.04 0.04 0.03 0.03 0.03 0.04 0.07 0.05 0.05 0.05
0.00 0.00 0.00 0.00 0.00 0.01 0.02 0.02 0.03 0.02 0.01 0.01 0.01 0.01 0.01 0.02 0.02 0.03 0.03 0.03 0.04 0.05 0.03 0.03 0.01 0.01 0.01 0.01 0.01 0.01 0.01 0.02 0.04 0.06 0.08 0.08 0.08 0.08 0.07 0.05 0.04 0.03 0.03 0.04 0.04 0.05 0.05 0.05 0.04
0.00 0.00 0.00 0.00 0.01 0.02 0.01 0.01 0.01 0.01 0.00 0.00 0.00 0.01 0.01 0.01 0.01 0.02 0.03 0.03 0.04 0.04 0.03 0.02 0.01 0.01 0.01 0.01 0.01 0.02 0.03 0.04 0.05 0.06 0.08 0.08 0.08 0.07 0.08 0.06 0.04 0.03 0.04 0.05 0.06 0.05 0.05 0.06 0.05
0.00 0.00 0.00 0.00 0.00 0.02 0.01 0.00 0.00 0.00 0.00 0.00 0.00 0.01 0.01 0.01 0.01 0.01 0.02 0.03 0.03 0.04 0.04 0.03 0.03 0.02 0.02 0.02 0.01 0.02 0.03 0.04 0.04 0.05 0.06 0.06 0.07 0.06 0.06 0.05 0.04 0.04 0.03 0.04 0.05 0.05 0.05 0.06 0.05
0.00 0.00 0.00 0.01 0.01 0.02 0.02 0.01 0.00 0.00 0.00 0.00 0.01 0.01 0.01 0.01 0.01 0.01 0.02 0.03 0.03 0.03 0.03 0.04 0.03 0.02 0.02 0.02 0.02 0.02 0.03 0.03 0.05 0.06 0.06 0.07 0.08 0.05 0.04 0.03 0.02 0.02 0.02 0.03 0.03 0.02 0.03 0.04 0.04
0.00 0.00 0.00 0.01 0.01 0.02 0.02 0.01 0.01 0.01 0.00 0.01 0.01 0.01 0.01 0.01 0.01 0.02 0.03 0.03 0.03 0.03 0.03 0.04 0.04 0.04 0.03 0.01 0.01 0.02 0.02 0.03 0.05 0.06 0.04 0.06 0.08 0.08 0.05 0.02 0.01 0.01 0.01 0.02 0.02 0.02 0.02 0.03 0.05
0.00 0.00 0.00 0.01 0.01 0.02 0.02 0.01 0.01 0.01 0.01 0.01 0.01 0.02 0.02 0.02 0.03 0.04 0.04 0.04 0.04 0.04 0.04 0.04 0.05 0.04 0.03 0.01 0.02 0.05 0.06 0.06 0.06 0.05 0.04 0.04 0.05 0.06 0.04 0.03 0.02 0.02 0.01 0.01 0.02 0.02 0.02 0.02 0.03
0.00 0.01 0.01 0.01 0.01 0.01 0.01 0.01 0.01 0.02 0.01 0.02 0.03 0.04 0.05 0.06 0.06 0.06 0.05 0.05 0.03 0.04 0.03 0.04 0.05 0.04 0.03 0.02 0.01 0.03 0.07 0.06 0.04 0.04 0.03 0.03 0.04 0.05 0.05 0.03 0.02 0.01 0.01 0.01 0.02 0.02 0.02 0.01 0.01
MSLP
1007.53 1008.46 1009.54 1010.60 1011.47 1012.03 1012.21 1012.03 1011.56 1010.93 1010.29 1009.77 1009.41 1009.24 1009.20 1009.20 1009.18 1009.05 1008.80 1008.47 1008.11 1007.80 1007.64 1007.65 1007.85 1008.19 1008.59 1008.98 1009.29 1009.50 1009.60 1009.64 1009.67 1009.75 1009.90 1010.13 1010.40 1010.67 1010.88 1010.99 1010.99 1010.88 1010.72 1010.54 1010.39 1010.30 1010.28 1010.31 1010.38
1008.00 1009.09 1010.25 1011.29 1012.05 1012.41 1012.33 1011.87 1011.12 1010.26 1009.43 1008.77 1008.33 1008.13 1008.11 1008.17 1008.23 1008.21 1008.08 1007.87 1007.64 1007.46 1007.41 1007.51 1007.78 1008.17 1008.60 1009.02 1009.35 1009.58 1009.72 1009.80 1009.88 1009.99 1010.17 1010.41 1010.68 1010.93 1011.11 1011.19 1011.17 1011.06 1010.91 1010.75 1010.63 1010.57 1010.58 1010.64 1010.73
1008.64 1009.84 1011.01 1011.98 1012.58 1012.72 1012.39 1011.66 1010.67 1009.60 1008.62 1007.85 1007.36 1007.14 1007.14 1007.25 1007.38 1007.45 1007.43 1007.34 1007.24 1007.18 1007.23 1007.42 1007.75 1008.17 1008.63 1009.06 1009.40 1009.65 1009.82 1009.93 1010.04 1010.19 1010.39 1010.63 1010.89 1011.13 1011.29 1011.36 1011.34 1011.25 1011.12 1011.00 1010.93 1010.92 1010.97 1011.06 1011.17
1009.38 1010.61 1011.74 1012.58 1013.00 1012.92 1012.36 1011.42 1010.25 1009.04 1007.96 1007.14 1006.63 1006.41 1006.42 1006.57 1006.76 1006.90 1006.98 1006.99 1007.00 1007.05 1007.18 1007.44 1007.81 1008.25 1008.70 1009.12 1009.46 1009.71 1009.88 1010.02 1010.16 1010.33 1010.55 1010.80 1011.06 1011.28 1011.44 1011.52 1011.51 1011.45 1011.38 1011.32 1011.31 1011.35 1011.45 1011.58 1011.72
1010.09 1011.30 1012.33 1013.01 1013.24 1012.96 1012.23 1011.15 1009.88 1008.63 1007.53 1006.72 1006.22 1006.02 1006.06 1006.24 1006.46 1006.65 1006.79 1006.88 1006.97 1007.09 1007.30 1007.59 1007.97 1008.40 1008.82 1009.20 1009.51 1009.75 1009.92 1010.07 1010.23 1010.43 1010.66 1010.93 1011.19 1011.42 1011.58 1011.67 1011.70 1011.69 1011.67 1011.68 1011.74 1011.85 1012.00 1012.16 1012.33
1010.70 1011.81 1012.69 1013.19 1013.23 1012.80 1011.96 1010.83 1009.57 1008.36 1007.33 1006.58 1006.15 1005.99 1006.05 1006.24 1006.47 1006.69 1006.86 1007.00 1007.13 1007.30 1007.54 1007.85 1008.21 1008.60 1008.98 1009.30 1009.57 1009.77 1009.94 1010.10 1010.28 1010.50 1010.76 1011.04 1011.31 1011.55 1011.73 1011.84 1011.91 1011.94 1011.99 1012.07 1012.19 1012.36 1012.56 1012.76 1012.95
1011.13 1012.08 1012.77 1013.08 1012.97 1012.43 1011.55 1010.45 1009.28 1008.19 1007.29 1006.67 1006.32 1006.22 1006.31 1006.49 1006.71 1006.91 1007.09 1007.24 1007.40 1007.59 1007.84 1008.13 1008.46 1008.80 1009.12 1009.38 1009.60 1009.77 1009.93 1010.10 1010.31 1010.56 1010.85 1011.16 1011.45 1011.70 1011.89 1012.02 1012.11 1012.19 1012.29 1012.42 1012.60 1012.82 1013.06 1013.29 1013.49
1011.36 1012.12 1012.60 1012.72 1012.46 1011.86 1011.00 1009.99 1008.97 1008.05 1007.33 1006.85 1006.60 1006.56 1006.65 1006.81 1007.00 1007.17 1007.33 1007.48 1007.64 1007.84 1008.08 1008.35 1008.65 1008.94 1009.19 1009.40 1009.58 1009.73 1009.89 1010.09 1010.33 1010.62 1010.95 1011.29 1011.60 1011.86 1012.07 1012.21 1012.32 1012.42 1012.54 1012.71 1012.92 1013.17 1013.43 1013.68 1013.90
1011.41 1011.96 1012.23 1012.17 1011.80 1011.17 1010.35 1009.47 1008.62 1007.89 1007.34 1007.00 1006.84 1006.82 1006.90 1007.03 1007.16 1007.29 1007.42 1007.55 1007.72 1007.92 1008.16 1008.42 1008.69 1008.94 1009.16 1009.34 1009.49 1009.65 1009.83 1010.06 1010.34 1010.69 1011.06 1011.43 1011.77 1012.04 1012.25 1012.39 1012.50 1012.61 1012.74 1012.91 1013.14 1013.40 1013.67 1013.93 1014.15
1011.34 1011.69 1011.76 1011.54 1011.08 1010.43 1009.68 1008.92 1008.23 1007.66 1007.26 1007.01 1006.90 1006.89 1006.93 1007.00 1007.07 1007.15 1007.25 1007.37 1007.54 1007.75 1008.01 1008.28 1008.55 1008.79 1009.00 1009.17 1009.34 1009.51 1009.72 1010.00 1010.34 1010.74 1011.16 1011.56 1011.92 1012.21 1012.42 1012.56 1012.67 1012.76 1012.89 1013.05 1013.27 1013.53 1013.80 1014.05 1014.27
1011.25 1011.41 1011.30 1010.95 1010.42 1009.76 1009.07 1008.41 1007.83 1007.38 1007.06 1006.86 1006.75 1006.69 1006.67 1006.66 1006.67 1006.70 1006.77 1006.89 1007.08 1007.33 1007.62 1007.93 1008.22 1008.49 1008.72 1008.92 1009.11 1009.32 1009.58 1009.91 1010.31 1010.75 1011.21 1011.66 1012.04 1012.35 1012.57 1012.71 1012.81 1012.90 1013.01 1013.17 1013.37 1013.61 1013.86 1014.11 1014.32
1011.19 1011.20 1010.96 1010.51 1009.92 1009.26 1008.60 1008.00 1007.49 1007.09 1006.78 1006.56 1006.40 1006.27 1006.15 1006.06 1006.00 1005.98 1006.04 1006.17 1006.39 1006.69 1007.03 1007.40 1007.75 1008.06 1008.34 1008.59 1008.83 1009.10 1009.41 1009.78 1010.22 1010.70 1011.20 1011.67 1012.09 1012.42 1012.66 1012.83 1012.94 1013.04 1013.15 1013.30 1013.48 1013.70 1013.94 1014.16 1014.36
1011.23 1011.13 1010.80 1010.28 1009.66 1008.99 1008.35 1007.76 1007.26 1006.84 1006.49 1006.20 1005.94 1005.70 1005.48 1005.29 1005.16 1005.11 1005.15 1005.31 1005.57 1005.92 1006.33 1006.76 1007.18 1007.57 1007.92 1008.24 1008.54 1008.86 1009.21 1009.62 1010.08 1010.58 1011.10 1011.59 1012.03 1012.40 1012.68 1012.89 1013.04 1013.17 1013.31 1013.47 1013.65 1013.86 1014.08 1014.28 1014.46
1011.38 1011.22 1010.83 1010.28 1009.65 1008.98 1008.33 1007.73 1007.19 1006.71 1006.27 1005.86 1005.48 1005.12 1004.79 1004.51 1004.31 1004.22 1004.26 1004.42 1004.72 1005.11 1005.58 1006.09 1006.59 1007.06 1007.49 1007.88 1008.25 1008.62 1009.00 1009.42 1009.89 1010.38 1010.89 1011.39 1011.85 1012.25 1012.59 1012.86 1013.09 1013.28 1013.47 1013.67 1013.87 1014.08 1014.29 1014.48 1014.65
1011.60 1011.41 1011.01 1010.47 1009.84 1009.18 1008.52 1007.89 1007.29 1006.71 1006.16 1005.62 1005.11 1004.63 1004.19 1003.83 1003.58 1003.45 1003.47 1003.63 1003.93 1004.36 1004.86 1005.42 1005.99 1006.54 1007.06 1007.53 1007.97 1008.38 1008.79 1009.21 1009.65 1010.12 1010.60 1011.08 1011.55 1011.98 1012.38 1012.73 1013.05 1013.33 1013.60 1013.86 1014.11 1014.34 1014.56 1014.75 1014.90
1011.83 1011.64 1011.26 1010.74 1010.15 1009.50 1008.84 1008.17 1007.49 1006.82 1006.15 1005.50 1004.87 1004.28 1003.76 1003.33 1003.02 1002.85 1002.83 1002.96 1003.25 1003.66 1004.18 1004.76 1005.38 1006.01 1006.60 1007.16 1007.67 1008.13 1008.56 1008.97 1009.38 1009.79 1010.23 1010.68 1011.14 1011.60 1012.05 1012.49 1012.90 1013.29 1013.65 1013.98 1014.29 1014.57 1014.81 1015.02 1015.17
1011.99 1011.80 1011.46 1011.00 1010.45 1009.84 1009.17 1008.47 1007.73 1006.97 1006.20 1005.44 1004.71 1004.04 1003.46 1002.98 1002.62 1002.40 1002.33 1002.41 1002.64 1003.00 1003.49 1004.07 1004.72 1005.40 1006.08 1006.72 1007.31 1007.84 1008.29 1008.70 1009.07 1009.44 1009.82 1010.22 1010.65 1011.12 1011.62 1012.12 1012.62 1013.11 1013.57 1013.99 1014.37 1014.70 1014.99 1015.22 1015.41
1012.00 1011.83 1011.53 1011.14 1010.65 1010.07 1009.42 1008.69 1007.89 1007.05 1006.19 1005.35 1004.56 1003.84 1003.21 1002.70 1002.31 1002.04 1001.90 1001.89 1002.03 1002.31 1002.74 1003.29 1003.95 1004.67 1005.43 1006.16 1006.85 1007.45 1007.96 1008.38 1008.74 1009.06 1009.38 1009.73 1010.14 1010.60 1011.11 1011.67 1012.24 1012.80 1013.34 1013.84 1014.29 1014.69 1015.03 1015.31 1015.54
1011.80 1011.66 1011.42 1011.10 1010.67 1010.14 1009.50 1008.74 1007.89 1006.98 1006.05 1005.15 1004.31 1003.56 1002.92 1002.40 1001.98 1001.66 1001.45 1001.35 1001.37 1001.54 1001.87 1002.37 1003.01 1003.77 1004.59 1005.43 1006.22 1006.92 1007.51 1007.98 1008.35 1008.65 1008.94 1009.25 1009.61 1010.06 1010.57 1011.15 1011.77 1012.39 1012.99 1013.55 1014.05 1014.51 1014.90 1015.25 1015.54
1011.39 1011.28 1011.12 1010.87 1010.52 1010.03 1009.38 1008.60 1007.69 1006.70 1005.71 1004.75 1003.88 1003.13 1002.50 1001.97 1001.55 1001.20 1000.92 1000.72 1000.63 1000.68 1000.90 1001.31 1001.92 1002.69 1003.57 1004.50 1005.41 1006.23 1006.92 1007.46 1007.87 1008.19 1008.47 1008.76 1009.11 1009.53 1010.04 1010.63 1011.26 1011.90 1012.53 1013.13 1013.67 1014.16 1014.61 1015.02 1015.38
1010.82 1010.76 1010.67 1010.50 1010.21 1009.75 1009.10 1008.27 1007.29 1006.22 1005.15 1004.15 1003.26 1002.51 1001.90 1001.41 1001.00 1000.63 1000.31 1000.03 999.83 999.75 999.85 1000.17 1000.72 1001.48 1002.40 1003.41 1004.41 1005.35 1006.15 1006.79 1007.28 1007.65 1007.96 1008.26 1008.60 1009.02 1009.52 1010.10 1010.74 1011.39 1012.02 1012.62 1013.18 1013.70 1014.18 1014.64 1015.07
1010.18 1010.18 1010.17 1010.09 1009.85 1009.41 1008.73 1007.83 1006.76 1005.61 1004.46 1003.41 1002.50 1001.77 1001.20 1000.75 1000.38 1000.03 999.69 999.35 999.06 998.88 998.86 999.07 999.54 1000.26 1001.17 1002.21 1003.29 1004.32 1005.22 1005.96 1006.54 1006.99 1007.35 1007.69 1008.06 1008.50 1009.01 1009.60 1010.23 1010.87 1011.50 1012.09 1012.64 1013.16 1013.66 1014.15 1014.64
1009.58 1009.66 1009.74 1009.72 1009.53 1009.09 1008.37 1007.39 1006.23 1004.97 1003.74 1002.63 1001.71 1001.00 1000.48 1000.10 999.80 999.50 999.18 998.82 998.47 998.20 998.07 998.16 998.52 999.15 1000.01 1001.04 1002.13 1003.20 1004.17 1004.99 1005.65 1006.18 1006.62 1007.03 1007.46 1007.93 1008.48 1009.08 1009.72 1010.36 1010.98 1011.55 1012.09 1012.60 1013.09 1013.59 1014.10
1009.12 1009.28 1009.45 1009.50 1009.33 1008.88 1008.10 1007.04 1005.78 1004.42 1003.11 1001.96 1001.03 1000.35 999.90 999.61 999.39 999.17 998.90 998.56 998.18 997.84 997.61 997.58 997.81 998.31 999.06 1000.00 1001.04 1002.08 1003.07 1003.92 1004.64 1005.24 1005.76 1006.24 1006.74 1007.29 1007.89 1008.53 1009.19 1009.84 1010.46 1011.02 1011.54 1012.02 1012.49 1012.98 1013.50
1008.89 1009.12 1009.34 1009.44 1009.28 1008.80 1007.97 1006.83 1005.48 1004.04 1002.67 1001.49 1000.57 999.94 999.57 999.37 999.26 999.14 998.94 998.64 998.26 997.88 997.56 997.41 997.49 997.83 998.42 999.21 1000.13 1001.08 1002.00 1002.84 1003.57 1004.21 1004.78 1005.34 1005.92 1006.53 1007.20 1007.91 1008.61 1009.29 1009.92 1010.48 1010.98 1011.44 1011.89 1012.35 1012.85
1008.89 1009.16 1009.41 1009.52 1009.35 1008.83 1007.94 1006.74 1005.33 1003.85 1002.46 1001.28 1000.40 999.83 999.54 999.45 999.45 999.44 999.32 999.08 998.73 998.32 997.93 997.66 997.59 997.76 998.16 998.75 999.49 1000.29 1001.09 1001.85 1002.53 1003.16 1003.76 1004.36 1005.00 1005.69 1006.43 1007.20 1007.96 1008.69 1009.35 1009.92 1010.42 1010.86 1011.28 1011.71 1012.18
1009.07 1009.34 1009.58 1009.65 1009.43 1008.87 1007.94 1006.71 1005.28 1003.80 1002.44 1001.31 1000.49 1000.01 999.82 999.83 999.94 1000.02 999.99 999.81 999.49 999.08 998.65 998.29 998.08 998.07 998.27 998.66 999.18 999.79 1000.42 1001.04 1001.63 1002.21 1002.79 1003.40 1004.07 1004.80 1005.60 1006.42 1007.25 1008.02 1008.72 1009.32 1009.83 1010.27 1010.67 1011.07 1011.49
1009.36 1009.55 1009.71 1009.70 1009.42 1008.80 1007.85 1006.63 1005.23 1003.82 1002.54 1001.51 1000.79 1000.41 1000.32 1000.43 1000.62 1000.78 1000.83 1000.71 1000.43 1000.03 999.58 999.16 998.85 998.69 998.71 998.90 999.21 999.61 1000.05 1000.51 1000.97 1001.44 1001.96 1002.53 1003.19 1003.94 1004.76 1005.62 1006.48 1007.29 1008.03 1008.67 1009.21 1009.66 1010.05 1010.42 1010.81
1009.61 1009.67 1009.69 1009.55 1009.17 1008.51 1007.55 1006.37 1005.08 1003.79 1002.66 1001.77 1001.19 1000.93 1000.93 1001.12 1001.37 1001.59 1001.68 1001.61 1001.37 1001.00 1000.55 1000.11 999.74 999.49 999.39 999.41 999.55 999.76 1000.01 1000.29 1000.60 1000.95 1001.36 1001.86 1002.46 1003.17 1003.97 1004.83 1005.70 1006.54 1007.30 1007.97 1008.54 1009.01 1009.41 1009.77 1010.13
1009.72 1009.59 1009.42 1009.12 1008.63 1007.91 1006.97 1005.88 1004.73 1003.63 1002.69 1002.00 1001.59 1001.45 1001.55 1001.79 1002.08 1002.32 1002.43 1002.38 1002.18 1001.84 1001.42 1001.00 1000.62 1000.34 1000.16 1000.08 1000.09 1000.15 1000.25 1000.38 1000.53 1000.74 1001.03 1001.41 1001.92 1002.55 1003.29 1004.10 1004.94 1005.77 1006.55 1007.23 1007.82 1008.32 1008.74 1009.11 1009.45
Thickness
5810 5810 5808 5799 5781 5761 5760 5772 5782 5785 5790 5799 5803 5798 5790 5783 5777 5774 5795 5802 5800 5796 5792 5789 5786 5783 5781 5780 5779 5777 5776 5774 5773 5771 5770 5769 5767 5766 5765 5764 5763 5762 5761 5760 5759 5759 5758 5758 5757
5810 5808 5801 5787 5765 5746 5757 5777 5782 5789 5798 5804 5804 5799 5791 5788 5794 5793 5796 5799 5799 5795 5791 5788 5785 5782 5780 5778 5776 5775 5773 5772 5770 5769 5768 5766 5765 5764 5763 5762 5761 5760 5759 5758 5757 5756 5756 5755 5755
5810 5807 5790 5773 5759 5751 5764 5782 5788 5797 5805 5804 5798 5799 5793 5789 5795 5796 5800 5800 5797 5793 5789 5787 5784 5781 5778 5776 5774 5773 5772 5770 5768 5767 5765 5764 5763 5761 5760 5760 5759 5758 5757 5756 5755 5754 5753 5753 5752
5805 5795 5783 5766 5762 5768 5777 5788 5794 5796 5801 5804 5798 5791 5796 5802 5801 5802 5802 5799 5794 5790 5788 5785 5782 5779 5777 5775 5773 5771 5770 5768 5766 5765 5763 5762 5761 5760 5758 5757 5756 5755 5754 5753 5753 5751 5750 5750 5750
5800 5783 5767 5754 5762 5775 5787 5795 5798 5794 5796 5799 5796 5787 5789 5801 5805 5803 5800 5797 5792 5788 5785 5783 5780 5778 5776 5773 5771 5770 5768 5766 5764 5763 5761 5760 5759 5758 5757 5755 5754 5753 5752 5751 5750 5749 5748 5748 5747
5783 5773 5752 5748 5762 5778 5790 5798 5799 5795 5795 5797 5794 5786 5786 5798 5799 5798 5797 5793 5790 5786 5783 5780 5779 5776 5774 5772 5770 5768 5766 5764 5762 5761 5759 5758 5757 5756 5755 5753 5752 5751 5750 5749 5749 5748 5747 5746 5746
5776 5763 5753 5757 5761 5772 5790 5799 5796 5792 5791 5795 5797 5783 5785 5792 5796 5796 5793 5790 5786 5783 5780 5778 5776 5774 5772 5770 5768 5766 5764 5762 5761 5759 5758 5756 5755 5754 5753 5751 5750 5749 5748 5747 5747 5746 5746 5745 5745
5782 5765 5757 5755 5761 5771 5791 5797 5799 5796 5794 5805 5802 5784 5781 5791 5795 5792 5788 5785 5782 5780 5777 5776 5774 5772 5770 5768 5766 5764 5762 5760 5759 5757 5756 5754 5753 5752 5750 5749 5748 5747 5746 5746 5745 5744 5744 5743 5743
5784 5757 5748 5759 5765 5775 5790 5791 5797 5805 5800 5800 5802 5799 5800 5798 5793 5786 5781 5778 5777 5776 5774 5773 5772 5771 5769 5766 5764 5762 5760 5758 5757 5755 5754 5752 5751 5750 5749 5747 5746 5745 5744 5744 5743 5742 5742 5741 5741
5771 5750 5760 5775 5780 5782 5787 5789 5793 5793 5789 5790 5794 5798 5800 5795 5789 5783 5778 5775 5773 5772 5772 5771 5770 5769 5767 5765 5763 5761 5759 5757 5755 5753 5752 5750 5749 5748 5747 5745 5744 5743 5743 5742 5740 5739 5739 5739 5738
5771 5762 5772 5781 5787 5787 5785 5788 5794 5788 5781 5789 5791 5791 5792 5788 5784 5782 5779 5777 5774 5773 5771 5769 5768 5766 5765 5763 5761 5759 5757 5755 5753 5752 5750 5749 5747 5746 5745 5744 5743 5742 5741 5740 5738 5737 5736 5736 5735
5768 5772 5777 5782 5789 5787 5785 5786 5787 5788 5791 5802 5801 5798 5792 5785 5782 5781 5778 5777 5774 5771 5770 5768 5767 5765 5762 5761 5759 5757 5755 5753 5752 5750 5749 5747 5745 5744 5743 5742 5740 5740 5739 5738 5736 5735 5734 5734 5733
5766 5771 5779 5783 5784 5784 5785 5782 5783 5787 5798 5801 5798 5793 5790 5785 5783 5781 5779 5776 5773 5770 5768 5767 5766 5763 5761 5758 5756 5755 5753 5751 5750 5749 5747 5746 5744 5742 5741 5740 5738 5737 5736 5735 5734 5733 5732 5731 5730
5767 5770 5774 5777 5780 5782 5779 5779 5780 5785 5794 5793 5790 5786 5786 5785 5782 5779 5775 5772 5771 5769 5768 5766 5763 5762 5759 5756 5754 5752 5751 5749 5748 5747 5745 5744 5742 5741 5739 5737 5736 5735 5734 5733 5732 5731 5730 5728 5727
5767 5762 5764 5771 5774 5777 5775 5766 5772 5784 5787 5784 5783 5782 5782 5782 5781 5778 5777 5774 5772 5770 5768 5765 5762 5760 5757 5755 5753 5750 5749 5747 5746 5745 5743 5742 5740 5739 5737 5736 5734 5733 5732 5731 5730 5729 5727 5726 5725
5756 5748 5742 5759 5767 5771 5763 5748 5770 5780 5779 5775 5777 5777 5777 5777 5778 5778 5777 5774 5772 5769 5767 5764 5762 5758 5755 5753 5751 5748 5746 5745 5744 5743 5741 5739 5738 5736 5735 5733 5732 5731 5730 5728 5727 5726 5723 5722 5721
5733 5727 5733 5746 5761 5762 5753 5746 5764 5773 5773 5770 5771 5772 5772 5771 5773 5774 5774 5772 5770 5767 5764 5761 5760 5757 5754 5751 5748 5746 5744 5742 5741 5740 5738 5737 5736 5734 5732 5731 5730 5729 5727 5726 5725 5722 5721 5719 5718
5721 5724 5728 5734 5750 5752 5744 5745 5757 5765 5766 5766 5767 5767 5767 5767 5770 5772 5771 5770 5767 5765 5762 5759 5757 5754 5751 5748 5745 5743 5741 5739 5738 5737 5736 5735 5733 5731 5730 5728 5727 5726 5724 5722 5721 5719 5718 5716 5715
5731 5727 5724 5734 5749 5744 5739 5741 5750 5756 5758 5759 5761 5762 5763 5764 5768 5768 5767 5765 5763 5761 5758 5756 5753 5750 5748 5745 5742 5739 5736 5735 5734 5734 5733 5732 5731 5729 5727 5726 5724 5722 5721 5719 5718 5716 5714 5712 5711
5727 5721 5722 5732 5744 5740 5733 5736 5746 5751 5753 5758 5758 5759 5759 5760 5760 5762 5762 5761 5760 5757 5755 5752 5749 5747 5746 5743 5740 5738 5735 5733 5732 5731 5730 5729 5727 5726 5725 5723 5721 5719 5717 5716 5714 5712 5710 5708 5707
5723 5720 5722 5724 5732 5734 5728 5724 5735 5747 5752 5755 5757 5758 5758 5757 5756 5757 5757 5756 5756 5754 5752 5750 5747 5745 5743 5740 5737 5734 5731 5729 5727 5726 5725 5725 5724 5723 5722 5720 5718 5716 5714 5712 5711 5709 5707 5704 5703
5716 5731 5729 5725 5715 5706 5716 5698 5723 5734 5740 5746 5750 5752 5753 5754 5753 5753 5753 5752 5752 5751 5750 5747 5744 5741 5739 5736 5733 5730 5727 5723 5723 5723 5722 5721 5720 5719 5718 5716 5715 5713 5711 5710 5708 5708 5706 5703 5700
5726 5734 5728 5721 5711 5701 5704 5695 5708 5724 5728 5737 5744 5748 5750 5750 5750 5750 5750 5750 5750 5748 5746 5743 5740 5737 5735 5732 5730 5726 5723 5721 5720 5719 5718 5716 5716 5715 5714 5712 5711 5709 5708 5707 5705 5704 5703 5701 5699
5733 5724 5714 5702 5694 5684 5697 5691 5696 5712 5726 5734 5741 5744 5746 5747 5747 5747 5747 5746 5745 5744 5741 5738 5735 5732 5730 5728 5726 5723 5720 5718 5716 5714 5713 5711 5710 5709 5708 5708 5706 5705 5704 5703 5702 5701 5700 5698 5696
5720 5699 5681 5677 5669 5676 5696 5691 5697 5721 5731 5735 5737 5740 5742 5743 5742 5742 5741 5740 5739 5738 5736 5733 5730 5727 5725 5724 5721 5720 5717 5715 5713 5711 5709 5707 5705 5705 5704 5703 5702 5701 5700 5700 5698 5697 5696 5694 5693
5709 5699 5675 5665 5662 5673 5688 5686 5705 5725 5731 5735 5736 5737 5738 5737 5737 5738 5737 5736 5735 5734 5731 5728 5726 5723 5721 5719 5717 5715 5713 5711 5709 5708 5706 5704 5702 5702 5701 5699 5699 5698 5697 5696 5694 5693 5691 5690 5689
5703 5693 5695 5676 5672 5667 5675 5690 5708 5722 5725 5728 5729 5730 5730 5732 5733 5734 5733 5732 5730 5728 5726 5724 5721 5719 5716 5715 5713 5711 5709 5708 5706 5704 5702 5700 5699 5698 5696 5695 5694 5694 5693 5692 5690 5688 5687 5686 5685
5708 5696 5679 5669 5657 5656 5671 5681 5688 5705 5712 5718 5720 5722 5724 5727 5728 5729 5728 5727 5725 5724 5721 5719 5717 5714 5712 5711 5709 5708 5705 5704 5702 5700 5698 5696 5695 5693 5691 5690 5689 5688 5688 5687 5685 5683 5682 5681 5680
5694 5688 5678 5666 5664 5655 5654 5671 5701 5703 5708 5710 5714 5718 5719 5720 5722 5722 5722 5721 5720 5718 5715 5713 5711 5709 5707 5706 5705 5703 5701 5699 5697 5696 5694 5692 5690 5688 5687 5686 5684 5683 5682 5681 5679 5678 5677 5676 5675
5698 5688 5676 5666 5661 5657 5654 5668 5704 5702 5704 5707 5710 5714 5715 5715 5716 5715 5714 5713 5712 5710 5709 5707 5705 5704 5702 5701 5699 5698 5696 5694 5692 5691 5689 5687 5685 5684 5683 5681 5679 5678 5677 5675 5674 5673 5672 5671 5670